Augusta, ME

9:17 PM EST on January 18, 2018 (GMT -0500)
Augusta State

Weather History for KAUG - April, 2014

Change the Weather History Date:

Sunday, April 13, 2014

  Actual Average Record
Temperature  
Mean Temperature 43 °F 43 °F  
Max Temperature 48 °F 52 °F 76 °F (1968)
Min Temperature 37 °F 34 °F 20 °F (1973)
Degree Days  
Heating Degree Days 22 22  
Month to date heating degree days 297 321  
Since 1 July heating degree days 7051 6690  
Cooling Degree Days 0 0  
Month to date cooling degree days 0 0  
Year to date cooling degree days 0 0  
Moisture  
Dew Point 34 °F    
Average Humidity 68    
Maximum Humidity 100    
Minimum Humidity 36    
Precipitation  
Precipitation 0.08 in 0.13 in 1.19 in (2002)
Month to date precipitation 1.19 1.65  
Year to date precipitation 9.12 10.06  
Sea Level Pressure  
Sea Level Pressure 30.20 in    
Wind  
Wind Speed 6 mph (NE)    
Max Wind Speed 12 mph    
Max Gust Speed 16 mph    
Visibility 8 miles    
Events Rain    
T = Trace of Precipitation, MM = Missing Value Source: NWS Daily Summary

Daily Weather History Graph

Daily Weather History Graph

Search for Another Location

Airport or City:

Trip Planner

Search our weather history database for the weather conditions in past years. The results will help you decide how hot, cold, wet, or windy it might be!

Date:

Astronomy

Apr. 13, 2014 Rise Set
Actual Time 5:59 AM EDT 7:21 PM EDT
Civil Twilight 5:28 AM EDT 7:51 PM EDT
Nautical Twilight 4:52 AM EDT 8:27 PM EDT
Astronomical Twilight 4:14 AM EDT 9:06 PM EDT
Moon 5:53 PM EDT (4/13) 4:59 AM EDT (4/13)
Length of Visible Light 14h 22m
Length of Day
13h 22m
Waxing Gibbous, 97% of the Moon is Illuminated
Apr 13
Waxing Gibbous
Apr 15
Full
Apr 22
Last Quarter
Apr 29
New
May 6
First Quarter

Hourly Weather History & Observations

Time (EDT) Temp. Windchill Dew Point Humidity Pressure Visibility Wind Dir Wind Speed Gust Speed Precip Events Conditions
12:53 AM 48.0 °F - 23.0 °F 37% 30.24 in 10.0 mi Calm Calm - N/A   Clear
1:53 AM 46.0 °F 41.9 °F 25.0 °F 44% 30.28 in 10.0 mi NE 8.1 mph - N/A   Overcast
2:53 AM 45.0 °F 41.2 °F 25.0 °F 46% 30.28 in 10.0 mi NNE 6.9 mph - N/A   Overcast
3:53 AM 43.0 °F 38.2 °F 26.1 °F 51% 30.27 in 10.0 mi NE 8.1 mph - N/A   Scattered Clouds
4:53 AM 43.0 °F 38.2 °F 25.0 °F 49% 30.28 in 10.0 mi NE 8.1 mph - N/A   Overcast
5:53 AM 42.1 °F 37.1 °F 25.0 °F 51% 30.30 in 10.0 mi NNE 8.1 mph - N/A   Overcast
6:53 AM 41.0 °F 35.2 °F 26.1 °F 55% 30.32 in 10.0 mi NNE 9.2 mph - N/A   Overcast
7:53 AM 42.1 °F 37.1 °F 27.0 °F 55% 30.34 in 10.0 mi NE 8.1 mph - N/A   Overcast
8:53 AM 42.1 °F 36.1 °F 26.1 °F 53% 30.33 in 10.0 mi ENE 10.4 mph - N/A   Overcast
9:53 AM 42.1 °F 38.4 °F 27.0 °F 55% 30.36 in 10.0 mi ESE 5.8 mph - 0.00 in Rain Light Rain
10:35 AM 41.0 °F 34.7 °F 30.0 °F 65% 30.36 in 10.0 mi East 10.4 mph 16.1 mph 0.00 in Rain Light Rain
10:53 AM 39.0 °F 34.0 °F 30.9 °F 73% 30.37 in 9.0 mi Variable 6.9 mph - 0.01 in Rain Light Rain
11:09 AM 39.0 °F 33.4 °F 32.0 °F 76% 30.34 in 10.0 mi ENE 8.1 mph - 0.00 in Rain Light Rain
11:53 AM 37.9 °F 33.5 °F 34.0 °F 86% 30.34 in 7.0 mi ESE 5.8 mph - 0.02 in Rain Light Rain
12:53 PM 37.0 °F 31.0 °F 34.0 °F 89% 30.29 in 6.0 mi East 8.1 mph - 0.04 in Rain Light Rain
1:35 PM 37.0 °F 30.4 °F 35.1 °F 93% 30.25 in 6.0 mi East 9.2 mph - 0.01 in Rain Light Rain
1:53 PM 37.0 °F 31.6 °F 35.1 °F 93% 30.26 in 10.0 mi East 6.9 mph - 0.01 in Rain Light Rain
2:01 PM 37.4 °F 32.1 °F 35.6 °F 93% 30.24 in 10.0 mi East 6.9 mph - N/A   Overcast
2:53 PM 37.9 °F 33.5 °F 37.0 °F 97% 30.24 in 10.0 mi SE 5.8 mph - 0.00 in   Overcast
3:53 PM 39.0 °F 33.4 °F 37.0 °F 93% 30.22 in 10.0 mi SE 8.1 mph - N/A   Overcast
4:00 PM 39.0 °F 33.4 °F 37.0 °F 93% 30.21 in 10.0 mi ESE 8.1 mph - N/A   Overcast
4:53 PM 39.0 °F 35.7 °F 37.9 °F 96% 30.19 in 7.0 mi ESE 4.6 mph - N/A   Overcast
5:53 PM 41.0 °F 38.0 °F 39.0 °F 93% 30.18 in 8.0 mi East 4.6 mph - N/A   Overcast
6:01 PM 41.0 °F 37.1 °F 39.0 °F 93% 30.16 in 8.0 mi ENE 5.8 mph - N/A   Overcast
6:53 PM 41.0 °F 37.1 °F 39.0 °F 93% 30.14 in 8.0 mi East 5.8 mph - N/A   Mostly Cloudy
7:08 PM 41.0 °F 39.0 °F 39.0 °F 93% 30.13 in 7.0 mi NNE 3.5 mph - N/A   Mostly Cloudy
7:53 PM 39.2 °F - 39.2 °F 100% 30.13 in 8.0 mi Calm Calm - N/A   Scattered Clouds
8:13 PM 39.9 °F 37.8 °F 39.0 °F 97% 30.12 in 10.0 mi ENE 3.5 mph - N/A   Mostly Cloudy
8:48 PM 39.2 °F 35.9 °F 39.2 °F 100% 30.09 in 9.0 mi ENE 4.6 mph - N/A   Overcast
8:53 PM 39.9 °F 36.7 °F 37.9 °F 93% 30.11 in 8.0 mi NE 4.6 mph - N/A   Overcast
9:38 PM 39.0 °F 36.8 °F 37.9 °F 96% 30.09 in 2.0 mi NNW 3.5 mph - N/A   Overcast
9:53 PM 39.0 °F - 37.9 °F 96% 30.07 in 2.0 mi Calm Calm - N/A   Overcast
10:04 PM 39.0 °F 35.7 °F 37.9 °F 96% 30.06 in 5.0 mi North 4.6 mph - N/A   Overcast
10:16 PM 37.9 °F 35.5 °F 37.0 °F 97% 30.05 in 1.8 mi NNW 3.5 mph - N/A   Overcast
10:30 PM 37.9 °F 32.7 °F 37.0 °F 97% 30.06 in 1.2 mi NNW 6.9 mph - N/A   Overcast
10:42 PM 37.9 °F 33.5 °F 37.0 °F 97% 30.05 in 3.0 mi North 5.8 mph - N/A   Overcast
10:53 PM 37.9 °F 33.5 °F 37.0 °F 97% 30.05 in 3.0 mi NNW 5.8 mph - N/A   Overcast
11:25 PM 37.0 °F 33.3 °F 37.0 °F 100% 30.03 in 2.5 mi NW 4.6 mph - N/A   Overcast
11:53 PM 37.0 °F 33.3 °F 36.0 °F 96% 30.03 in 1.8 mi NW 4.6 mph - N/A   Overcast